EHI
0 0 0 0 0 1 1 1 0 0 0 0 0 0 0 0 0 0 0 2 10 20 29 43 52 41 20 7 2 0 0 0 0 0 0 0 0 0 0 0 0 0 0 0 0 0 0 0 0
0 0 0 0 0 0 0 0 0 0 0 0 0 0 0 0 0 0 0 4 15 25 31 43 55 48 28 13 6 2 1 1 1 0 0 0 0 0 0 0 0 0 0 0 0 0 0 0 0
0 0 0 0 0 0 0 0 0 0 0 0 0 0 0 0 0 0 1 7 18 24 29 47 63 59 41 25 15 8 4 2 2 1 0 0 0 0 0 0 0 0 0 0 0 0 0 0 0
0 0 0 0 0 0 0 1 0 0 0 0 0 0 0 3 6 6 5 9 17 19 25 50 71 70 54 37 24 14 7 4 3 1 0 0 0 0 0 0 0 0 0 0 0 0 0 0 0
0 0 0 0 0 0 0 0 0 0 0 0 0 0 0 8 18 16 9 9 15 18 24 48 73 77 64 46 30 19 11 6 3 1 0 0 0 0 0 0 0 0 0 0 0 0 0 0 0
0 0 0 0 0 0 0 0 0 0 0 0 0 0 0 10 23 19 8 5 12 17 22 39 62 71 65 51 34 21 14 7 3 1 0 0 0 0 0 0 0 0 0 0 0 0 0 0 0
0 0 0 0 0 0 0 0 0 0 0 0 0 0 1 8 15 13 7 6 9 14 18 28 40 47 47 42 30 19 12 6 2 1 0 0 0 0 0 0 0 0 0 0 0 0 0 0 0
0 0 0 0 0 0 0 0 0 2 2 2 2 1 1 4 10 14 17 17 13 10 12 18 21 20 19 19 17 12 6 3 1 0 0 0 0 0 0 1 1 1 0 1 1 1 0 0 0
0 0 0 0 0 0 0 0 1 4 5 4 3 2 2 4 13 28 39 38 28 14 8 9 11 8 4 4 5 4 1 0 0 0 0 0 0 0 0 1 2 2 3 4 5 4 2 1 0
0 0 0 0 0 0 0 1 3 5 6 5 4 3 4 8 20 41 59 61 47 27 11 5 5 6 3 1 1 1 0 0 0 0 0 0 0 0 0 0 1 3 4 6 8 9 7 4 2
0 0 0 0 0 0 0 1 4 6 5 4 4 4 7 11 21 39 60 69 61 39 20 9 5 5 3 1 0 0 0 0 0 0 0 1 1 1 0 0 1 2 3 5 6 8 9 8 7
0 0 0 0 0 0 0 1 3 4 3 3 3 3 6 10 17 28 45 61 64 51 33 20 12 8 6 4 3 3 3 2 2 3 3 4 4 3 2 1 1 2 3 3 4 6 8 10 10
0 0 0 0 0 0 0 0 1 2 2 3 4 4 5 8 13 19 31 48 60 58 46 35 25 17 13 11 10 10 10 10 10 11 12 14 13 9 5 3 2 3 3 2 3 4 5 7 8
0 0 0 0 0 0 0 0 0 2 4 5 7 8 9 10 14 22 31 42 51 55 56 51 42 34 30 30 29 27 26 23 22 22 25 27 24 16 10 7 5 3 2 1 2 2 3 4 4
0 0 0 0 0 0 0 0 1 5 10 12 12 14 15 16 20 27 35 40 42 47 54 58 55 51 51 53 54 51 45 38 33 31 33 37 33 24 17 12 7 4 2 1 1 1 1 1 1
0 0 0 0 0 0 0 1 4 12 19 21 20 21 23 23 25 30 35 39 38 39 44 49 54 57 60 64 64 60 53 44 38 34 33 36 36 30 22 14 7 3 2 1 0 0 0 0 0
0 0 0 0 0 0 1 4 10 17 24 26 27 31 34 32 31 31 33 35 34 33 33 35 41 49 54 56 55 50 43 36 30 27 25 25 27 25 20 12 5 1 1 1 0 0 0 0 0
0 0 0 0 0 0 2 6 12 18 24 29 34 41 44 42 35 29 26 24 23 24 25 26 28 33 37 39 38 32 25 19 16 15 15 14 15 16 13 7 2 1 1 1 0 0 0 0 0
0 0 0 0 0 0 2 7 12 17 24 32 39 43 45 40 31 22 15 11 11 13 17 19 17 17 19 21 20 15 10 7 7 7 7 7 7 8 7 4 2 3 2 1 0 0 0 0 0
0 0 0 0 0 0 1 5 10 16 25 33 38 39 36 29 22 14 8 5 5 7 9 10 9 8 9 9 8 6 4 3 3 3 3 2 2 3 3 3 3 4 3 1 0 0 0 0 0
0 0 0 0 0 0 1 3 8 14 22 27 30 29 24 19 14 7 4 3 3 3 4 4 4 4 5 4 5 6 3 2 1 1 1 0 0 1 2 3 4 4 3 2 1 0 0 0 0
0 0 0 0 0 0 0 1 4 9 14 17 18 16 13 11 7 2 1 1 1 1 1 2 2 2 2 3 4 5 4 2 0 0 0 0 0 1 2 2 2 2 2 2 1 0 0 0 0
0 0 0 0 0 0 0 0 1 4 7 7 6 5 4 5 3 1 0 0 0 0 0 1 1 1 0 1 2 3 2 2 2 1 0 0 0 1 1 1 0 1 1 1 0 0 0 0 0
0 0 0 0 0 0 0 0 0 1 2 3 2 0 1 2 1 0 0 0 0 0 0 0 0 0 0 0 1 1 1 2 3 2 1 1 1 1 0 0 0 0 0 0 0 0 0 0 0
0 0 0 0 0 0 0 0 0 0 1 2 2 1 0 0 0 0 0 0 0 0 0 0 0 0 0 0 0 0 0 1 1 1 1 1 1 0 0 0 0 0 0 0 0 0 0 0 0
0 0 0 0 0 0 0 0 0 0 1 2 2 1 0 0 0 0 0 0 0 0 0 0 0 0 0 0 0 0 0 0 0 0 1 1 0 0 0 0 0 0 0 0 0 0 0 0 0
0 0 0 0 0 0 0 0 0 0 0 1 1 0 0 0 0 0 0 0 0 0 0 0 0 0 0 0 0 0 0 0 0 0 0 0 0 0 0 0 0 0 0 0 0 0 0 0 0
0 0 0 0 0 0 0 0 0 0 0 0 0 0 0 0 0 0 0 0 0 0 0 0 0 0 0 0 0 0 0 0 0 0 0 0 0 0 0 0 0 0 0 0 0 0 0 0 0
0 0 0 0 0 0 0 0 0 0 0 0 0 0 0 0 0 0 0 0 0 0 0 0 0 0 0 0 0 0 0 0 0 0 0 0 0 0 0 0 0 0 0 0 0 0 0 0 0
0 0 0 0 0 0 0 0 0 0 0 0 0 0 0 0 0 0 0 0 0 0 0 0 0 0 0 0 0 0 0 0 0 0 0 0 0 0 0 0 0 0 0 0 0 0 0 0 0
Wind_Speed
8 7 3 2 1 1 4 4 1 4 6 6 10 10 8 5 4 4 5 16 19 18 14 18 19 19 18 18 17 16 16 16 16 15 15 14 14 14 14 13 13 12 12 11 11 10 10 10 9
5 6 2 1 2 3 5 3 4 4 7 8 9 8 7 7 8 9 7 16 20 18 13 15 21 20 19 18 17 17 16 16 15 15 15 14 14 13 13 13 12 11 11 10 10 9 9 8 8
4 5 3 2 1 2 5 4 3 3 4 5 6 5 5 6 8 6 10 18 17 15 11 15 22 21 19 18 17 17 16 16 15 15 14 14 14 13 12 12 11 11 10 10 9 9 8 7 6
3 2 1 2 3 5 5 6 2 2 5 7 7 6 4 5 6 11 18 19 17 13 11 16 22 21 20 19 18 17 16 16 15 15 14 14 13 13 12 12 11 11 10 10 9 9 8 8 7
2 3 2 1 5 5 4 4 2 0 2 5 8 6 3 4 16 21 19 19 18 13 11 14 21 21 20 19 18 17 17 16 16 15 14 14 13 13 12 12 11 11 10 10 10 9 9 9 8
2 3 2 3 5 5 4 4 1 3 6 6 8 6 3 9 19 19 18 17 17 17 13 13 21 21 20 19 18 17 17 16 16 15 15 14 13 13 12 12 12 11 11 11 11 11 10 10 10
4 2 3 4 4 5 6 4 2 3 5 4 7 7 4 9 14 17 16 16 15 15 14 11 13 16 20 20 19 18 17 17 16 16 15 15 14 13 13 12 13 13 13 12 12 12 12 12 11
5 3 2 2 4 6 5 3 2 4 3 5 6 9 8 11 13 14 14 14 14 13 13 11 10 10 10 12 18 18 18 17 17 16 16 15 14 14 14 12 13 14 14 14 14 14 14 13 12
2 2 4 4 4 6 4 2 2 4 5 3 3 7 11 14 14 15 12 11 12 12 11 11 11 9 9 8 14 15 17 16 16 14 16 14 7 7 8 12 15 16 16 17 16 16 15 14 13
4 4 9 8 6 6 5 3 5 6 5 4 4 6 14 15 15 17 16 16 15 14 13 11 11 11 9 9 8 6 8 8 8 6 8 6 5 6 9 11 17 18 18 18 18 17 15 12 6
3 7 8 10 9 5 3 3 4 10 6 10 14 16 16 14 15 17 17 17 17 15 14 13 12 11 11 7 6 5 5 5 6 7 8 6 5 5 6 4 7 9 12 9 10 11 7 6 5
4 9 8 8 6 3 3 2 3 6 11 13 17 19 17 15 15 15 15 15 14 15 15 14 13 11 11 8 7 7 6 5 6 8 8 6 4 5 5 4 4 4 3 4 5 4 6 7 8
5 7 7 7 7 4 2 2 2 4 5 10 10 10 10 10 9 7 8 10 12 14 15 15 13 12 10 8 6 7 6 7 7 6 7 8 6 5 4 3 3 3 3 3 4 4 6 6 6
6 8 10 9 8 5 2 4 2 4 5 10 10 8 6 5 5 4 4 5 7 9 11 12 12 11 10 8 6 5 5 5 5 5 7 8 5 4 4 3 2 2 2 3 3 5 5 4 4
5 8 11 9 7 6 3 6 6 5 8 9 8 7 5 4 4 4 3 3 1 1 3 9 10 8 8 7 6 4 3 3 3 3 4 5 5 4 3 2 2 2 2 3 2 3 2 3 3
6 5 7 12 7 8 1 7 9 2 9 7 6 6 5 5 6 6 6 5 5 5 5 2 5 3 4 4 4 2 2 2 2 2 3 4 4 4 3 2 2 1 1 1 1 1 1 2 2
4 3 8 12 7 4 3 3 4 3 7 6 5 6 7 9 10 10 11 8 6 5 4 4 3 2 1 1 2 2 2 1 2 3 3 3 3 3 3 2 1 1 1 0 1 0 1 1 2
6 5 6 7 6 4 6 4 6 7 8 7 7 8 10 11 9 10 12 11 10 7 4 4 5 6 5 3 3 2 1 0 1 2 3 4 3 4 3 2 2 2 2 1 0 1 1 1 2
6 3 5 5 4 6 9 10 9 10 11 11 9 9 9 8 7 8 8 10 9 5 5 4 6 4 2 0 1 1 1 1 1 3 4 5 5 4 3 2 2 2 2 1 1 1 0 1 1
2 3 4 6 7 7 9 10 11 14 12 10 9 8 6 5 6 6 6 7 6 3 3 5 3 1 2 0 1 2 1 1 2 2 2 4 5 5 4 4 3 3 2 1 1 1 1 1 0
2 1 2 3 5 8 6 7 9 9 12 13 11 8 7 7 6 6 7 6 6 5 3 3 3 1 2 2 0 0 1 2 2 1 1 2 3 4 4 5 4 3 3 2 2 2 3 1 1
2 2 2 3 5 3 4 1 5 5 10 12 10 9 8 8 7 6 6 7 7 6 5 4 3 3 3 3 2 2 1 0 1 2 1 2 2 3 3 4 5 4 3 3 3 3 3 3 1
2 1 3 2 3 2 5 4 3 4 6 7 7 7 7 5 5 6 7 7 7 6 6 5 5 5 4 4 3 3 2 1 1 1 1 2 2 2 2 3 3 4 4 4 4 3 3 3 3
1 5 7 7 6 3 2 3 3 2 1 2 3 5 4 4 4 5 5 5 5 5 5 5 6 6 6 6 5 5 4 3 3 4 4 3 3 2 3 2 2 3 3 4 4 5 5 4 4
5 6 5 6 5 3 1 4 3 1 2 3 3 2 2 2 3 3 3 3 3 3 3 3 4 4 4 4 5 5 4 4 4 3 3 3 3 3 4 3 2 2 2 3 3 4 5 5 5
2 7 6 3 4 3 1 1 2 1 1 1 3 3 2 2 2 3 2 2 2 2 2 2 2 2 2 3 3 3 3 2 2 3 3 3 3 3 4 4 3 3 3 3 3 3 5 5 6
2 2 4 6 0 1 0 0 2 2 2 2 2 2 2 2 2 2 2 2 2 2 2 2 2 1 1 1 2 2 2 3 3 4 3 3 3 4 4 4 5 5 4 4 4 4 5 5 5
3 2 5 5 2 2 1 2 3 5 5 4 3 2 2 1 1 2 2 3 3 3 3 2 2 2 3 3 3 3 3 4 4 4 4 4 4 4 5 5 5 5 5 5 5 5 5 5 5
4 3 4 2 4 4 1 4 3 7 6 5 4 3 3 2 2 3 3 4 3 3 3 3 3 3 4 5 5 5 5 5 5 5 6 5 5 5 5 5 5 5 6 6 5 5 6 6 6
1 0 3 3 2 2 2 4 2 3 3 3 2 1 2 3 3 4 4 3 3 3 3 4 5 5 6 6 6 7 7 6 6 7 7 7 7 6 6 6 6 6 6 6 6 7 6 6 7
Wind_Direction
156 151 154 172 103 28 281 276 21 49 51 56 75 84 85 69 137 155 132 143 140 147 154 152 150 150 150 149 147 145 143 141 139 137 135 133 132 131 131 131 131 131 131 131 130 130 129 129 128
160 157 151 144 69 358 295 322 16 74 135 124 82 77 78 71 85 104 121 145 143 147 150 152 152 152 152 152 152 150 148 147 145 144 142 141 140 140 139 139 139 140 140 140 141 140 140 140 141
174 174 151 95 20 257 289 314 351 42 109 95 83 60 75 106 108 118 142 143 140 145 149 156 154 154 155 156 156 155 153 152 151 150 149 149 148 148 148 148 149 150 151 153 155 154 155 158 162
156 128 72 82 232 248 259 290 331 53 53 66 96 67 60 110 120 133 141 144 143 147 152 159 157 157 158 159 160 160 159 158 158 158 158 158 158 158 158 159 161 163 165 167 169 171 173 177 184
111 107 78 297 250 250 257 273 299 359 75 82 96 89 49 53 121 136 146 149 148 150 156 162 160 161 162 164 165 165 165 165 165 165 166 167 168 169 170 171 174 177 179 181 184 188 190 195 201
108 94 99 245 252 262 251 227 165 86 102 106 101 101 94 128 135 148 152 153 153 155 159 164 165 165 167 168 170 170 170 171 172 174 176 177 179 181 183 185 188 191 194 197 199 202 204 208 212
155 140 214 233 261 264 242 213 149 145 135 141 127 108 130 153 152 153 153 152 153 157 161 166 169 170 171 173 175 176 177 178 180 182 185 187 190 193 196 198 201 204 206 209 212 214 216 218 219
160 120 269 262 264 265 234 186 133 140 142 135 132 138 170 182 156 152 151 151 153 160 167 170 169 170 172 176 181 183 184 186 188 191 193 196 199 203 208 211 215 217 218 219 220 222 224 225 225
131 89 252 246 249 269 243 190 122 110 115 140 158 165 170 163 149 146 148 150 158 166 174 174 173 173 174 178 188 188 191 194 195 198 202 202 207 210 216 222 224 227 227 226 226 226 229 230 231
124 183 239 237 244 255 247 210 154 128 127 132 132 139 148 156 155 156 161 166 171 175 180 180 179 178 177 186 188 190 196 199 200 200 205 204 202 213 222 229 233 235 234 232 230 228 230 232 231
198 222 256 268 264 252 229 215 153 140 181 186 169 165 164 166 167 168 171 174 177 178 180 182 183 181 183 192 184 191 200 200 206 207 209 209 210 221 231 231 241 240 239 235 233 231 225 223 220
273 272 272 276 284 281 238 200 169 182 202 192 176 168 170 173 180 177 174 176 176 178 184 182 184 183 188 192 188 191 198 200 206 212 210 206 211 218 223 226 231 227 223 218 221 218 222 226 225
276 278 293 294 307 294 300 275 227 241 191 168 167 159 171 176 180 177 171 169 175 182 184 182 182 183 186 188 192 195 201 204 206 205 208 205 208 217 221 224 220 213 206 212 222 224 227 228 232
280 300 302 300 304 301 325 319 347 256 162 156 165 167 164 154 151 136 137 156 173 183 186 183 184 182 179 180 185 188 194 196 195 200 203 199 200 201 202 211 212 208 200 199 209 219 223 225 227
306 321 317 301 297 287 5 328 279 214 158 164 170 161 125 95 73 75 91 91 90 166 184 179 182 179 174 172 176 179 180 166 177 183 178 174 181 187 188 194 214 221 210 202 208 225 220 229 236
338 341 306 288 285 280 149 262 281 186 145 155 156 138 111 79 64 59 53 55 37 30 13 256 168 163 176 165 160 153 137 136 155 146 143 156 166 167 166 170 211 223 205 197 211 223 234 249 249
345 295 280 293 294 278 144 236 321 83 129 130 119 103 91 73 55 52 51 44 61 51 33 334 14 61 27 122 102 97 112 134 137 129 133 149 156 156 154 167 185 161 131 152 226 189 203 248 266
262 269 286 296 315 40 78 70 43 61 91 85 82 81 81 74 62 59 62 53 49 41 43 354 23 15 9 359 38 17 37 81 164 154 159 165 164 158 150 157 156 132 119 100 114 203 229 236 257
248 283 298 298 331 61 76 71 47 51 66 68 71 74 79 79 72 63 61 70 61 35 59 53 52 3 293 195 101 221 233 227 222 206 180 171 166 161 158 164 153 137 139 169 181 171 267 285 296
299 351 334 328 0 56 74 68 55 51 58 66 74 77 76 66 64 60 56 64 83 88 91 101 81 333 7 249 191 227 214 243 239 243 203 187 172 169 163 168 170 158 152 141 147 144 141 269 89
349 32 4 340 10 38 75 37 38 47 53 54 49 49 57 62 57 48 53 59 60 58 56 83 90 63 356 306 356 320 29 17 6 331 260 222 196 183 172 183 179 177 172 184 188 167 160 199 270
315 316 69 45 54 351 50 63 6 27 42 44 42 39 39 35 42 48 49 48 46 43 41 52 58 50 9 1 36 101 100 74 278 272 274 261 225 207 196 198 196 191 185 192 202 179 171 167 223
225 31 43 38 82 46 24 87 314 4 37 35 44 53 50 49 51 55 55 55 50 48 48 41 44 37 18 20 25 40 43 330 302 325 336 320 305 281 247 212 201 202 198 200 203 191 193 186 194
87 46 30 39 58 30 330 106 297 322 57 61 58 62 69 76 70 64 61 62 57 51 51 47 44 33 19 21 19 21 19 0 0 355 343 327 316 308 308 274 226 213 205 211 213 206 206 207 210
49 69 23 358 7 272 257 115 238 253 123 126 104 74 74 94 99 89 74 70 71 68 63 57 55 37 22 23 18 12 6 2 358 340 333 332 326 318 314 314 266 240 231 225 224 222 224 217 216
283 127 148 212 237 261 355 146 238 189 139 112 128 143 172 179 157 147 149 154 153 138 118 100 80 43 14 16 1 352 350 343 328 325 323 323 309 297 306 311 298 274 251 245 234 235 235 229 225
10 341 176 151 149 79 279 322 283 210 238 235 175 162 196 181 171 168 177 185 187 183 190 185 170 209 279 294 298 303 307 308 304 305 308 304 302 301 309 306 303 295 280 263 249 245 245 238 234
113 131 58 69 78 343 311 222 231 211 221 217 196 194 230 208 185 193 203 206 210 205 204 199 194 216 242 258 266 268 270 272 276 285 291 287 286 290 297 297 296 294 288 275 260 254 251 247 244
5 34 82 100 145 148 250 266 245 202 200 194 204 216 232 229 232 240 237 226 223 218 210 216 227 236 246 248 246 253 258 259 260 262 266 267 270 275 279 282 284 283 282 275 263 257 255 249 251
74 119 131 128 298 132 151 266 291 183 189 186 212 254 283 280 267 257 254 259 259 254 250 247 247 247 248 246 242 244 248 252 254 256 258 259 261 263 262 264 271 275 277 274 263 262 263 251 251